[[{"header":{"parameterUnit":"m.s-1","parameterCategory":1,"la1":30.2991,"la2":30.254,"lo1":-89.0895,"lo2":-89.0444,"dx":0.0017,"dy":0.0017,"nx":28,"ny":28,"refTime":"2022-12-14T15:00:00:Z","depth":0,"parameterNumber":2,"parameterNumberName":"U-component_of_WINDS"},"data":[0,0,0,0,0,0,0,0,0,0,0,0,0,0,0,0,0,0,0,0,0,0,0,0,0,0,0,0,0,0,0,0,0,0,0,0,0,0,0,0,0,0,0,0,0,0,0,0,0,0,0,0,0,0,0,0,0,0,3.8688,3.8689,0,3.8772,3.8773,3.8774,3.8722,3.872,3.8717,3.8715,3.8801,3.8805,3.881,0,0,0,0,0,0,0,0,0,0,0,0,0,3.8485,3.8489,3.8688,3.8689,3.869,3.8772,3.8773,3.8774,3.8723,3.872,3.8717,3.8714,3.8799,3.8805,3.881,0,0,0,0,0,0,0,0,0,0,0,0,0,3.8571,3.849,3.8688,3.8674,3.8674,3.8771,3.8773,3.8774,3.8723,3.8719,3.8716,3.8712,3.8798,3.8804,3.8811,3.8926,0,0,3.8832,3.8835,0,0,0,0,0,0,0,0,3.8567,3.8579,3.8675,3.8676,3.8675,3.8733,3.8733,3.8825,3.8724,3.8705,3.8715,3.8711,3.8781,3.8789,3.8813,3.893,3.8934,3.8832,3.8837,3.884,3.8841,0,0,0,0,0,0,0,3.8561,3.8575,3.8721,3.8677,3.8677,3.8664,3.8673,3.875,3.8762,3.8706,3.8702,3.8713,3.878,3.8806,3.8814,3.8935,3.8832,3.8838,3.8843,3.8845,3.9153,3.9157,0,0,0,0,0,0,3.8556,3.857,3.8719,3.8724,3.8611,3.8671,3.868,3.8718,3.8761,3.8764,3.8716,3.871,3.8796,3.8807,3.8817,3.8956,3.8839,3.8846,3.885,3.9149,3.9154,3.9158,0,0,0,0,0,0,3.8551,3.8569,3.8715,3.8646,3.8664,3.8678,3.8721,3.8722,3.8747,3.8769,3.8771,3.874,3.8794,3.8808,3.89,3.8958,3.8849,3.8855,3.9144,3.9151,3.9156,3.9234,0,0,0,0,0,0,3.8546,3.8568,3.8612,3.8648,3.8668,3.8796,3.8725,3.8726,3.8759,3.8753,3.8792,3.8795,3.8792,3.889,3.8907,3.8966,3.8861,3.9139,3.9147,3.9154,3.9226,3.9242,3.9256,0,0,0,0,0,3.8539,3.863,3.8614,3.8632,3.8723,3.88,3.8811,3.8806,3.8764,3.8809,3.8823,3.8794,3.8949,3.89,3.8918,3.898,3.9135,3.9145,3.9154,3.922,3.9239,3.9255,0,0,0,0,0,0,3.8601,3.8635,3.8617,3.8723,3.8759,3.8791,3.8847,3.8826,3.8875,3.8866,3.8858,3.8867,3.8963,3.8981,3.8925,3.9095,3.9036,3.9049,3.908,3.9098,3.9113,3.9106,3.8866,0,0,0,0,0,3.8627,3.8687,3.8713,3.8804,3.8823,3.8832,3.8865,3.8858,3.8895,3.891,3.893,3.8967,3.9024,3.9062,3.9116,3.9229,3.9237,3.9281,3.9295,3.9307,3.9319,3.9381,3.94,3.9189,3.9188,3.9188,0,0,3.8681,3.8707,3.8745,3.8817,3.8844,3.8906,3.8845,3.8913,3.8959,3.892,3.9008,3.9025,3.9066,3.9169,3.9216,3.9187,3.9379,3.9319,3.9328,3.9333,3.9392,3.9412,3.943,3.9195,3.9194,3.9193,0,0,3.8812,3.8838,3.8916,3.8945,3.8987,3.8992,3.9011,3.9047,3.9056,3.9145,3.9117,3.9172,3.9271,3.9301,3.933,3.9474,3.9449,3.9491,3.9568,3.9628,3.9645,3.966,3.9712,3.973,3.9503,3.9503,3.9503,0,3.8875,3.8967,3.896,3.9031,3.9063,3.9031,3.9111,3.9139,3.9196,3.922,3.9186,3.931,3.9335,3.9446,3.9481,3.9505,3.9527,3.9487,3.9643,3.9658,3.9671,3.9721,3.974,3.9508,3.9507,3.9507,3.9507,0,3.9042,3.9107,3.9166,3.9222,3.9261,3.9337,3.9341,3.9382,3.9371,3.9381,3.9472,3.9501,3.9561,3.9586,3.9577,3.9696,3.9677,3.9644,3.9584,3.9697,3.9743,3.9762,3.9515,3.9513,3.9512,3.9511,0,0,3.9214,3.9266,3.9288,3.9313,3.9358,3.9408,3.9482,3.954,3.9576,3.9616,3.9679,3.9763,3.9733,3.9766,3.9759,3.9812,3.9926,3.9773,3.9774,3.98,4.006,4.0084,4.0106,3.991,3.9913,3.9916,4.0056,0,3.9348,3.9477,3.9473,3.9594,3.9654,3.9624,3.9689,3.9724,3.9735,3.9788,3.98,3.986,3.9815,3.9835,3.9886,3.9901,3.9977,3.9891,3.9968,3.9971,3.9959,4.0131,4.0157,4.0288,4.0074,4.0077,4.008,0,3.9522,3.9569,3.9695,3.9731,3.9757,3.9815,3.9868,3.9919,3.9958,3.9962,3.9999,3.9985,4.0061,3.9999,4.0104,4.0045,4.0077,4.0089,4.0094,4.0101,4.0032,4.0143,4.0329,4.0349,4.0108,4.0106,4.0104,0,3.9635,3.973,3.9818,3.9841,3.9885,3.9927,3.9947,3.9982,4.0018,4.0065,4.0088,4.0144,4.0174,4.0218,4.0219,4.0174,4.0325,4.0263,4.0331,4.0331,4.0364,4.0362,4.0559,4.0384,4.0384,4.0384,4.0383,0,3.9785,3.9864,3.987,3.9924,4.0012,4.0007,4.0094,4.011,4.0142,4.0199,4.0177,4.0232,4.023,4.0285,4.0287,4.0374,4.0388,4.0394,4.0393,4.0396,4.0395,4.0416,4.0407,4.0389,4.0388,4.0387,4.0386,0,3.9927,3.9934,4.0028,4.0062,4.0073,4.0136,4.0166,4.0218,4.0227,4.03,4.0317,4.0332,4.0396,4.0402,4.0476,4.0477,4.0583,4.0572,4.0569,4.0568,4.0635,4.0629,4.0852,4.0882,4.0688,4.069,4.0692,0,4.0022,4.0082,4.0123,4.016,4.0183,4.0243,4.0279,4.0276,4.0315,4.0365,4.0411,4.0473,4.0523,4.0627,4.0645,4.0702,4.0693,4.0767,4.0701,4.0702,4.0694,4.0691,4.0697,4.078,4.0782,4.0784,4.0785,0,4.0191,4.0192,4.0245,4.03,4.0344,4.0388,4.0428,4.0459,4.0462,4.0507,4.0572,4.0611,4.0687,4.075,4.0806,4.0827,4.0807,4.0806,4.0825,4.0828,4.0824,4.0828,4.0605,4.0801,4.0799,4.0798,4.0797,4.0797,4.0313,4.0365,4.0402,4.0463,4.0493,4.0531,4.0582,4.0598,4.0652,4.0714,4.071,4.0783,4.0821,4.0894,4.092,4.0977,4.0952,4.0979,4.0986,4.0993,4.1,4.0815,4.0987,4.0987,4.0986,4.0986,4.0986,0,4.0481,4.0504,4.0559,4.0617,4.0664,4.0641,4.0685,4.0727,4.0791,4.0828,4.0877,4.0953,4.1014,4.1037,4.1096,4.1137,4.113,4.1153,4.115,4.1156,4.1019,4.0997,4.1158,4.1158,4.1158,4.1158,4.1158,4.1158,4.0574,4.0662,4.0667,4.0769,4.0792,4.0863,4.089,4.0925,4.0955,4.1041,4.1091,4.1105,4.1137,4.1199,4.1253,4.1259,4.1282,4.1309,4.1311,4.1182,4.1165,4.1148,4.1128,4.1314,4.1314,4.1442,4.1444,4.1445]},{"header":{"parameterUnit":"m.s-1","parameterCategory":1,"la1":30.2991,"la2":30.254,"lo1":-89.0895,"lo2":-89.0444,"dx":0.0017,"dy":0.0017,"nx":28,"ny":28,"refTime":"2022-12-14T15:00:00:Z","depth":0,"parameterNumber":3,"parameterNumberName":"V-component_of_WINDS"},"data":[0,0,0,0,0,0,0,0,0,0,0,0,0,0,0,0,0,0,0,0,0,0,0,0,0,0,0,0,0,0,0,0,0,0,0,0,0,0,0,0,0,0,0,0,0,0,0,0,0,0,0,0,0,0,0,0,0,0,-4.4151,-4.4154,0,-4.438,-4.4383,-4.4385,-4.4399,-4.4396,-4.4393,-4.4391,-4.4628,-4.4637,-4.4645,0,0,0,0,0,0,0,0,0,0,0,0,0,-4.3728,-4.3736,-4.4151,-4.4154,-4.4157,-4.438,-4.4383,-4.4386,-4.4399,-4.4396,-4.4393,-4.439,-4.4625,-4.4636,-4.4646,0,0,0,0,0,0,0,0,0,0,0,0,0,-4.393,-4.3738,-4.415,-4.419,-4.4196,-4.4379,-4.4383,-4.4387,-4.44,-4.4396,-4.4392,-4.4388,-4.4622,-4.4635,-4.4647,-4.4808,0,0,-4.4688,-4.4693,0,0,0,0,0,0,0,0,-4.3919,-4.3946,-4.4181,-4.4188,-4.4194,-4.4357,-4.4321,-4.4528,-4.4401,-4.4322,-4.4391,-4.4386,-4.4541,-4.4561,-4.4612,-4.4819,-4.4829,-4.4689,-4.4697,-4.4702,-4.4706,0,0,0,0,0,0,0,-4.3905,-4.3936,-4.4242,-4.4185,-4.4193,-4.4197,-4.4222,-4.436,-4.4451,-4.4329,-4.433,-4.4357,-4.4544,-4.46,-4.4618,-4.4833,-4.4688,-4.47,-4.4708,-4.4713,-4.5184,-4.5189,0,0,0,0,0,0,-4.3882,-4.3924,-4.4234,-4.4249,-4.4044,-4.4208,-4.4235,-4.4309,-4.445,-4.4467,-4.436,-4.4357,-4.4579,-4.4603,-4.4626,-4.4825,-4.4702,-4.4715,-4.4722,-4.518,-4.5185,-4.519,0,0,0,0,0,0,-4.3873,-4.391,-4.4225,-4.4087,-4.4127,-4.422,-4.4302,-4.4315,-4.4371,-4.4473,-4.449,-4.44,-4.4577,-4.4608,-4.4763,-4.4833,-4.4721,-4.4733,-4.5174,-4.5181,-4.5188,-4.5222,0,0,0,0,0,0,-4.3861,-4.3907,-4.3968,-4.4088,-4.4135,-4.4357,-4.4306,-4.4323,-4.4393,-4.4391,-4.4515,-4.4532,-4.4576,-4.4743,-4.4776,-4.4849,-4.4743,-4.5168,-4.5177,-4.5185,-4.5215,-4.5229,-4.5241,0,0,0,0,0,-4.3846,-4.3968,-4.3971,-4.4008,-4.4213,-4.4361,-4.4388,-4.4435,-4.4399,-4.4462,-4.4528,-4.4528,-4.482,-4.4759,-4.4796,-4.4874,-4.5164,-4.5175,-4.5185,-4.5209,-4.5226,-4.5241,0,0,0,0,0,0,-4.3855,-4.3985,-4.3989,-4.4154,-4.4246,-4.4363,-4.4443,-4.4452,-4.4557,-4.4551,-4.4606,-4.4634,-4.4788,-4.4846,-4.4776,-4.5038,-4.4988,-4.5006,-4.4994,-4.5011,-4.5024,-4.5007,-4.4754,0,0,0,0,0,-4.3875,-4.3984,-4.4092,-4.4227,-4.4273,-4.435,-4.4417,-4.4445,-4.4544,-4.4583,-4.466,-4.4756,-4.487,-4.4944,-4.5054,-4.5223,-4.5252,-4.5296,-4.5309,-4.5319,-4.5334,-4.543,-4.5452,-4.5224,-4.5224,-4.5224,0,0,-4.392,-4.4005,-4.407,-4.4231,-4.4306,-4.4418,-4.4383,-4.4503,-4.4588,-4.4601,-4.4753,-4.4813,-4.4924,-4.5087,-4.5163,-4.5141,-4.5403,-4.5332,-4.534,-4.535,-4.5443,-4.5465,-4.5484,-4.5231,-4.523,-4.5229,0,0,-4.4059,-4.4133,-4.4254,-4.433,-4.4444,-4.4495,-4.4524,-4.464,-4.468,-4.4832,-4.4846,-4.4947,-4.5141,-4.522,-4.5286,-4.5456,-4.5461,-4.549,-4.556,-4.5652,-4.567,-4.5686,-4.5749,-4.577,-4.5505,-4.5505,-4.5505,0,-4.41,-4.4269,-4.4316,-4.4436,-4.4508,-4.4525,-4.4649,-4.472,-4.4865,-4.4914,-4.4887,-4.5132,-4.5208,-4.5391,-4.5432,-4.5484,-4.552,-4.5477,-4.5664,-4.568,-4.5696,-4.5756,-4.5779,-4.5508,-4.5508,-4.5508,-4.5507,0,-4.4315,-4.4432,-4.4516,-4.4655,-4.4736,-4.4857,-4.4924,-4.5,-4.5022,-4.5076,-4.5232,-4.5323,-4.5453,-4.5498,-4.5521,-4.5685,-4.5668,-4.5652,-4.5603,-4.572,-4.5777,-4.5801,-4.5512,-4.5511,-4.551,-4.551,0,0,-4.4466,-4.4629,-4.4659,-4.4723,-4.485,-4.4942,-4.5065,-4.5191,-4.5256,-4.5355,-4.5461,-4.5625,-4.5611,-4.5686,-4.5717,-4.5799,-4.593,-4.5773,-4.5776,-4.58,-4.6118,-4.6131,-4.6156,-4.5933,-4.5938,-4.5941,-4.611,0,-4.462,-4.4838,-4.4884,-4.5074,-4.5183,-4.5201,-4.5309,-4.5399,-4.5453,-4.5555,-4.5615,-4.5731,-4.5703,-4.5748,-4.5829,-4.5896,-4.5994,-4.5885,-4.6034,-4.6038,-4.6006,-4.6186,-4.62,-4.6354,-4.6132,-4.6136,-4.6139,0,-4.4829,-4.4932,-4.5132,-4.5246,-4.5294,-4.5389,-4.5509,-4.5606,-4.5709,-4.5743,-4.5827,-4.585,-4.598,-4.5925,-4.6106,-4.603,-4.6094,-4.6136,-4.6144,-4.616,-4.6096,-4.6209,-4.6404,-4.6428,-4.6174,-4.6171,-4.6169,0,-4.492,-4.511,-4.5254,-4.5308,-4.5444,-4.5511,-4.5571,-4.567,-4.5744,-4.5849,-4.5898,-4.6017,-4.6082,-4.6175,-4.623,-4.6184,-4.6408,-4.6357,-4.6441,-4.644,-4.6488,-4.6485,-4.6698,-4.6527,-4.6527,-4.6526,-4.6526,0,-4.5088,-4.521,-4.5297,-4.5386,-4.5524,-4.5577,-4.5712,-4.5772,-4.5861,-4.5963,-4.5986,-4.6081,-4.6148,-4.6254,-4.6298,-4.6442,-4.6472,-4.6504,-4.6514,-4.6503,-4.6499,-4.6546,-4.6537,-4.6533,-4.6531,-4.653,-4.6529,0,-4.5214,-4.5277,-4.5436,-4.5552,-4.5584,-4.5681,-4.578,-4.5868,-4.5922,-4.6051,-4.6085,-4.617,-4.6296,-4.636,-4.6517,-4.6547,-4.671,-4.6713,-4.6675,-4.6679,-4.6761,-4.6753,-4.7013,-4.705,-4.6853,-4.6855,-4.6856,0,-4.5318,-4.5412,-4.5538,-4.5607,-4.5668,-4.578,-4.5855,-4.5911,-4.5988,-4.6114,-4.6187,-4.6314,-4.6418,-4.6618,-4.6695,-4.6815,-4.6823,-4.6906,-4.6841,-4.6827,-4.6826,-4.682,-4.6831,-4.6917,-4.6919,-4.6921,-4.6922,0,-4.5495,-4.5522,-4.5628,-4.5747,-4.5835,-4.5931,-4.6026,-4.6082,-4.6153,-4.6239,-4.6367,-4.6448,-4.6608,-4.6734,-4.686,-4.6924,-4.6936,-4.6941,-4.6968,-4.6957,-4.6932,-4.6948,-4.6708,-4.6935,-4.6934,-4.6933,-4.6932,-4.6932,-4.5615,-4.57,-4.5802,-4.592,-4.5997,-4.6085,-4.6174,-4.6239,-4.6346,-4.6481,-4.6507,-4.6643,-4.6746,-4.6917,-4.6984,-4.7093,-4.7075,-4.7113,-4.7123,-4.7132,-4.7136,-4.6913,-4.7116,-4.7115,-4.7115,-4.7115,-4.7115,0,-4.5795,-4.5861,-4.5969,-4.6101,-4.6195,-4.6196,-4.6301,-4.638,-4.6499,-4.6594,-4.6696,-4.6844,-4.6967,-4.7053,-4.7178,-4.7249,-4.7258,-4.728,-4.7276,-4.7291,-4.7144,-4.7109,-4.7271,-4.7271,-4.7271,-4.7271,-4.7271,-4.7271,-4.59,-4.6044,-4.6083,-4.6267,-4.6333,-4.6466,-4.6526,-4.6608,-4.6684,-4.6848,-4.695,-4.7005,-4.7097,-4.7229,-4.7343,-4.7365,-4.7411,-4.7433,-4.7456,-4.7318,-4.7301,-4.7285,-4.7253,-4.7443,-4.7443,-4.7595,-4.7596,-4.7597]}]]